Location: Bouillancy
(49.1149°N, 2.9308°E)
Time: 08:02:29
(UTC+00:00)

Terra - Pass Details

Date: 30 September 2020
Orbit: 701 x 703 km, 98.2° (Epoch: 29 October)

Event Time Altitude Azimuth Distance (km) Brightness Sun altitude
Exits shadow 20:45:09 17° 16° (NNE) 1,746 4.0 -31.3°
Drops below altitude 10° 20:46:29 10° 5° (N) 2,183 4.7 -31.4°
Sets 20:48:59 0° 354° (N) 3,105 5.7 -31.8°
